Hourly Data Report for July 02, 2021

FLIN FLON
MANITOBA
Current Station Operator: ECCC - MSC

54°41'00.000" N
101°41'00.000" W
303.90 m
5050919
71954
WFO

Download Data

Hourly Data (July 2021)
Hourly Data Report for July 2, 2021
TIME
LST
Temp Definition
°C
Dew Point Definition
°C
Rel Hum Definition
%
Precip. Amount Definition
mm

Wind Dir Definition
10's deg

Wind Spd Definition
km/h
Visibility Definition
km
Stn Press Definition
kPa
Hmdx Definition


Wind Chill Definition


Weather Definition


00:00 23.8 18.8 73 0.0 20 6   97.86 30   LegendNANA
01:00 21.7 18.6 83 0.0 18 2   97.86 28   LegendNANA
02:00 20.8 18.6 87 0.0 20 4   97.85 27   LegendNANA
03:00 20.4 19.1 92 0.0 20 2   97.85 27   LegendNANA
04:00 20.8 19.3 91 0.0 21 2   97.86 28   LegendNANA
05:00 19.6 18.7 94 0.0 21 3   97.86     LegendNANA
06:00 21.2 19.2 88 0.0 19 3   97.85 28   LegendNANA
07:00 23.7 18.3 72 0.0 18 8   97.83 30   LegendNANA
08:00 25.1 18.1 65 0.0 17 8   97.81 31   LegendNANA
09:00 27.2 17.8 56 0.0 17 9   97.79 33   LegendNANA
10:00 28.1 17.7 53 0.0 18 11   97.75 34   LegendNANA
11:00 30.5 17.7 46 0.0 18 10   97.70 36   LegendNANA
12:00 31.7 17.0 41 0.0 17 13   97.65 37   LegendNANA
13:00 32.4 16.8 39 0.0 17 13   97.60 38   LegendNANA
14:00 32.8 15.5 35 0.0 17 14   97.51 37   LegendNANA
15:00 33.1 16.3 37 0.0 17 15   97.42 38   LegendNANA
16:00 33.0 16.5 37 0.0 18 16   97.33 38   LegendNANA
17:00 32.6 16.5 38 0.0 18 13   97.28 38   LegendNANA
18:00 32.2 18.0 43 0.0 18 12   97.23 38   LegendNANA
19:00 31.3 18.0 45 0.0 18 9   97.19 37   LegendNANA
20:00 29.9 17.7 48 0.0 17 10   97.16 36   LegendNANA
21:00 28.6 18.2 53 0.0 17 11   97.12 35   LegendNANA
22:00 26.2 19.1 65 0.0 22 7   97.10 33   LegendNANA
23:00 25.3 19.4 70 0.0 21 11   97.06 32   LegendNANA

Notes on Data Quality.

Legend

  • E = Estimated
  • M = Missing
  • NA = Not Available*
  • [empty] = Indicates an unobserved value
Date modified: